#timestamp,LO_Frequency,Hit,StdDev 
1616749215.3,286046995.1,Y
1616749235.1,286046998.2,P
1616749255.8,286046998.5,P
1616749275.7,286047000.6,N
1616749295.5,286046999.7,N
1616749315.4,286047000.3,N
1616749335.2,286047002.7,N
1616749355.0,286046999.7,N
1616749355.9,286046999.7,N
1616749375.8,286047002.8,N
1616749395.6,286047000.5,N
1616749415.4,286047000.6,N
1616749435.3,286047000.8,N
1616749455.1,286046998.2,N
1616749475.9,286046998.4,N
1616749495.7,286046999.3,N
1616749515.5,286046998.9,N
1616749535.4,286046999.6,N
1616749555.2,286046997.0,N
1616749575.0,286046997.3,N
1616749575.9,286046997.3,N
1616749595.8,286046997.3,N
1616749615.6,286047000.9,N
1616749635.4,286047003.8,N
1616749655.3,286047003.1,N
1616749675.1,286047004.2,N
1616749695.9,286047001.5,N
1616749715.7,286047001.5,N
1616749735.5,286047001.4,N
1616749755.4,286047002.3,N
1616749775.2,286046999.7,N
1616749795.0,286047000.1,N
1616749795.9,286047000.1,N
1616749815.8,286046998.2,N
1616749835.6,286046998.6,N
1616749855.5,286046998.9,N
1616749875.3,286046996.6,N
1616749895.1,286046996.9,N
1616749915.9,286046996.9,N
1616749935.7,286046996.6,N
1616749955.5,286046997.2,N
1616749975.4,286046997.2,N
1616749995.2,286046997.8,N
1616750015.1,286046997.4,N
1616750016.0,286046997.4,N
1616750035.8,286046998.0,N
1616750055.6,286046995.9,N
1616750075.5,286046996.1,N
1616750095.3,286046996.1,N
1616750115.1,286046993.3,N
1616750135.9,286046995.8,N
1616750155.7,286046995.1,N
1616750175.6,286046995.9,N
1616750195.4,286046997.5,N
1616750215.2,286046999.6,N
1616750235.1,286046999.2,N
1616750236.0,286046999.2,N
1616750255.8,286046999.0,N
1616750275.6,286046999.0,N
1616750295.5,286046998.2,N
1616750315.3,286046998.2,N
1616750335.2,286046998.2,N
1616750355.9,286046998.5,N
1616750375.7,286046998.9,N
1616750395.6,286046999.5,N
1616750415.4,286046998.5,N
1616750435.2,286046999.0,N
1616750455.1,286046999.3,N
1616750456.0,286046999.3,N
1616750475.8,286047000.8,N
1616750495.7,286047002.8,N
1616750515.5,286047002.6,N
1616750535.3,286047002.6,N
1616750555.2,286047001.9,N
1616750575.9,286047003.5,N
1616750595.7,286047003.6,N
1616750615.6,286047003.7,N
1616750635.4,286047004.4,N
1616750655.2,286047004.6,N
1616750675.1,286047005.0,N
1616750676.0,286047005.0,N
1616750695.8,286047004.6,N
1616750715.7,286047003.0,N
1616750735.5,286047003.7,N
1616750755.3,286047004.1,N
1616750775.2,286047002.6,N
1616750795.0,286046999.8,N
1616750795.9,286046999.8,N
1616750815.8,286047002.8,N
1616750835.6,286047002.4,N
1616750855.4,286047002.8,N
1616750875.3,286047002.0,N
1616750895.1,286047002.2,N
1616750915.8,286047000.1,N
1616750935.7,286047000.2,N
1616750955.5,286047001.5,N
1616750975.3,286047003.9,N
1616750995.2,286047001.7,N
1616751015.0,286047001.6,N
1616751015.9,286047001.6,N
1616751035.8,286047001.3,N
1616751055.6,286047001.9,N
1616751075.4,286047002.2,N
1616751095.3,286047002.8,N
1616751115.1,286047004.3,N
1616751135.8,286047004.4,N
1616751155.7,286047002.5,N
1616751175.5,286047003.9,N
1616751195.4,286047001.6,N
1616751215.2,286047001.7,N
1616751235.0,286047003.8,N
1616751235.9,286047003.8,N
1616751255.8,286047003.3,N
1616751275.6,286047004.1,Y
1616751295.4,286047000.5,P
1616751315.3,286047002.4,N
1616751335.1,286047002.7,P
1616751355.9,286047001.0,N
1616751375.7,286047002.7,Y
1616751395.5,286047000.0,P
1616751415.4,286047000.5,N
1616751435.2,286047001.3,N
1616751455.1,286047002.5,Y
1616751456.0,286047002.5,P
1616751475.8,286046999.8,N
1616751495.6,286046998.1,N
1616751515.5,286046998.9,N
1616751535.3,286046996.9,N
1616751555.1,286046997.0,N
1616751575.9,286046999.1,N
1616751595.7,286046998.7,N
1616751615.6,286047000.1,N
1616751635.4,286047000.3,N
1616751655.2,286046999.7,N
1616751675.1,286047004.4,N
1616751676.0,286047004.4,N
1616751695.8,286047003.8,N
1616751715.6,286047003.5,N
1616751735.5,286047005.6,N
1616751755.3,286047005.7,N
1616751775.2,286047003.1,N
1616751795.9,286047003.0,N
1616751815.7,286047003.7,N
1616751835.6,286047004.3,N
1616751855.4,286047001.9,N
1616751875.2,286047004.3,N
1616751895.1,286047001.5,N
1616751896.0,286047001.5,N
1616751915.8,286047002.0,N
1616751935.7,286047000.4,N
1616751955.5,286047000.8,N
1616751975.3,286047001.1,N
1616751995.2,286046998.9,N
1616752015.9,286046998.3,N
1616752035.7,286046997.3,N
1616752055.6,286046995.2,N
1616752075.4,286046995.1,N
1616752095.2,286046993.3,N
1616752115.1,286046996.4,N
1616752116.0,286046996.4,N
1616752135.8,286046993.8,N
1616752155.7,286046993.6,N
1616752175.5,286046996.1,N
1616752195.3,286046995.9,N
1616752215.2,286046996.1,N
1616752235.0,286046995.7,N
1616752235.9,286046995.7,N
1616752255.7,286046996.0,N
1616752275.6,286046996.2,N
1616752295.4,286046996.2,N
1616752315.3,286046996.0,N
1616752335.1,286046994.1,N
1616752336.0,286046994.1,N
1616752355.8,286046995.2,N
1616752375.7,286046996.1,N
1616752395.5,286046995.1,N
1616752415.3,286046997.8,N
1616752435.2,286046995.2,N
1616752455.0,286046997.6,N
1616752455.9,286046997.6,N
1616752475.8,286046993.7,Y
1616752495.6,286046996.7,P
1616752515.4,286046997.2,P
1616752535.3,286046997.6,P
1616752555.1,286046998.0,Y
1616752575.9,286047000.9,P
1616752595.7,286047000.0,N
1616752615.5,286047000.3,N
1616752635.4,286047001.9,N
1616752655.2,286047003.2,N
1616752675.0,286047002.9,N
1616752675.9,286047002.9,N
1616752695.8,286047003.3,N
1616752715.6,286047001.4,N
1616752735.4,286047002.1,N
1616752755.3,286047000.0,N
1616752775.1,286046998.6,N
1616752795.9,286046999.0,N
